period_start,C,m1,H,J0,J1,J2,J3,J4,J5,JA,JB,JC,JD,JJ,JK,JN,#
2013-10-20 00:00:09,-0.00,0.14,0.00,26.60,28.45,30.98,5.74,29.63,1016.66,2041.13,3419.71,3301.00,3589.00,349.48,319.81,5.22,0000 0000 0000 0000 000000
2013-10-20 00:01:09,0.04,0.14,0.00,26.63,28.45,31.03,6.02,29.54,1016.68,2041.15,3419.45,3301.00,3589.00,350.71,320.71,5.22,0000 0000 0000 0000 000000
2013-10-20 00:02:10,0.06,0.14,0.00,26.68,28.45,30.98,5.91,29.54,1016.66,2041.13,3419.24,3301.00,3589.00,350.64,320.60,5.23,0000 0000 0000 0000 000000
2013-10-20 00:03:10,0.00,0.14,0.00,26.66,28.45,30.95,5.83,29.50,1016.66,2041.15,3419.11,3300.99,3589.00,349.00,319.21,5.24,0000 0000 0000 0000 000000
2013-10-20 00:04:10,0.01,0.14,0.00,26.58,28.45,30.94,5.87,29.58,1016.67,2041.14,3419.05,3300.97,3588.99,350.02,319.94,5.24,0000 0000 0000 0000 000000
2013-10-20 00:05:10,0.00,0.14,0.00,26.63,28.45,30.96,5.89,29.63,1016.70,2041.11,3419.02,3300.94,3588.98,350.06,320.14,5.25,0000 0000 0000 0000 000000
2013-10-20 00:06:10,-0.00,0.14,0.00,26.61,28.45,30.96,5.81,29.50,1016.67,2041.07,3419.00,3300.92,3588.94,350.87,320.88,5.25,0000 0000 0000 0000 000000
2013-10-20 00:07:10,-0.02,0.14,0.00,26.53,28.45,31.00,5.84,29.63,1016.68,2041.07,3419.00,3300.92,3588.95,349.98,320.15,5.26,0000 0000 0000 0000 000000
2013-10-20 00:08:11,0.00,0.14,0.00,26.54,28.45,30.97,5.91,29.54,1016.69,2041.07,3419.00,3300.92,3588.93,348.87,319.49,5.27,0000 0000 0000 0000 000000
2013-10-20 00:09:11,0.01,0.14,0.00,26.59,28.45,30.95,5.86,29.71,1016.71,2041.06,3419.00,3300.67,3588.76,350.30,320.17,5.27,0000 0000 0000 0000 000000
2013-10-20 00:10:11,0.05,0.14,0.00,26.61,28.45,31.00,5.68,29.46,1016.82,2041.07,3418.99,3300.50,3588.58,349.80,319.95,5.28,0000 0000 0000 0000 000000
2013-10-20 00:11:11,0.07,0.14,0.00,26.64,28.45,30.97,5.77,29.63,1016.84,2041.05,3418.98,3300.40,3588.44,350.68,320.72,5.28,0000 0000 0000 0000 000000
2013-10-20 00:12:12,0.01,0.14,0.00,26.67,28.45,30.95,5.92,29.63,1016.99,2041.05,3418.99,3300.33,3588.26,350.45,320.53,5.29,0000 0000 0000 0000 000000
2013-10-20 00:13:12,0.04,0.15,0.00,26.72,28.45,30.97,5.94,29.50,1017.02,2041.06,3418.99,3300.22,3588.13,349.78,319.88,5.29,0000 0000 0000 0000 000000
2013-10-20 00:14:12,0.04,0.15,0.00,26.71,28.45,30.95,5.88,29.33,1017.01,2041.05,3418.99,3300.13,3588.08,350.55,320.59,5.30,0000 0000 0000 0000 000000
2013-10-20 00:15:12,0.01,0.15,0.00,26.68,28.45,30.94,5.90,29.54,1016.99,2041.04,3418.89,3300.08,3588.03,350.94,320.97,5.31,0000 0000 0000 0000 000000
2013-10-20 00:16:13,0.02,0.15,0.00,26.68,28.45,30.97,5.88,29.71,1017.01,2041.04,3418.68,3300.06,3588.03,349.86,319.99,5.31,0000 0000 0000 0000 000000
2013-10-20 00:17:13,0.02,0.15,0.00,26.66,28.45,30.98,6.00,29.67,1017.04,2041.06,3418.63,3300.06,3588.04,350.60,320.28,5.32,0000 0000 0000 0000 000000
2013-10-20 00:18:13,0.03,0.15,0.00,26.63,28.45,30.93,6.00,29.67,1017.04,2041.09,3418.32,3300.04,3588.01,350.50,320.29,5.32,0000 0000 0000 0000 000000
2013-10-20 00:19:14,0.06,0.15,0.00,26.63,28.45,30.96,5.88,29.63,1017.04,2041.09,3418.13,3300.04,3588.01,349.79,320.12,5.33,0000 0000 0000 0000 000000
2013-10-20 00:20:14,0.04,0.15,0.00,26.64,28.45,30.95,5.70,29.63,1017.07,2041.11,3418.07,3300.03,3588.02,349.03,319.29,5.34,0000 0000 0000 0000 000000
2013-10-20 00:21:14,0.01,0.15,0.00,26.62,28.45,30.93,6.03,29.54,1017.10,2041.14,3418.03,3300.01,3588.01,350.66,320.81,5.34,0000 0000 0000 0000 000000
2013-10-20 00:22:14,0.03,0.15,0.00,26.62,28.45,30.98,5.92,29.50,1017.10,2041.12,3418.00,3300.00,3588.00,349.26,319.53,5.35,0000 0000 0000 0000 000000
2013-10-20 00:23:15,-0.02,0.15,0.00,26.59,28.45,30.98,6.04,29.75,1017.10,2041.09,3418.00,3300.00,3588.00,350.43,320.81,5.35,0000 0000 0000 0000 000000
2013-10-20 00:24:15,-0.00,0.15,0.00,26.58,28.45,30.95,5.87,29.58,1017.10,2041.11,3418.00,3300.00,3588.00,349.31,320.16,5.36,0000 0000 0000 0000 000000
2013-10-20 00:25:15,0.01,0.15,0.00,26.58,28.45,30.95,5.79,29.71,1017.10,2041.16,3418.00,3300.00,3588.00,349.75,319.93,5.37,0000 0000 0000 0000 000000
2013-10-20 00:26:15,0.03,0.15,0.00,26.58,28.45,30.95,5.95,29.67,1017.10,2041.19,3418.00,3300.00,3587.99,349.91,320.33,5.37,0000 0000 0000 0000 000000
2013-10-20 00:27:16,0.02,0.15,0.00,26.56,28.45,31.00,5.81,29.71,1017.10,2041.14,3417.95,3300.00,3587.97,349.13,319.35,5.38,0000 0000 0000 0000 000000
2013-10-20 00:28:16,-0.02,0.15,0.00,26.59,28.45,30.99,5.83,29.63,1017.10,2041.09,3417.74,3299.97,3587.93,350.10,320.52,5.38,0000 0000 0000 0000 000000
2013-10-20 00:29:16,0.00,0.15,0.00,26.56,28.46,31.03,5.85,29.75,1017.10,2041.06,3417.41,3299.95,3587.84,349.99,320.26,5.39,0000 0000 0000 0000 000000
2013-10-20 00:30:17,0.02,0.15,0.00,26.55,28.46,31.05,6.10,29.79,1017.09,2041.07,3417.25,3299.94,3587.73,351.00,321.19,5.39,0000 0000 0000 0000 000000
2013-10-20 00:31:17,0.02,0.15,0.00,26.49,28.47,31.03,5.97,29.79,1017.10,2041.06,3417.12,3299.82,3587.63,349.79,320.14,5.40,0000 0000 0000 0000 000000
2013-10-20 00:32:17,0.07,0.15,0.00,26.49,28.47,31.03,5.97,29.46,1017.10,2041.07,3417.05,3299.64,3587.38,350.86,321.13,5.41,0000 0000 0000 0000 000000
2013-10-20 00:33:17,0.07,0.15,0.00,26.55,28.47,31.00,5.84,29.75,1017.09,2041.04,3417.02,3299.55,3587.23,349.60,319.92,5.41,0000 0000 0000 0000 000000
2013-10-20 00:34:18,0.03,0.15,0.00,26.58,28.47,30.97,5.82,29.83,1017.10,2041.05,3417.00,3299.29,3587.11,350.22,320.12,5.42,0000 0000 0000 0000 000000
2013-10-20 00:35:18,0.07,0.15,0.00,26.57,28.47,31.01,5.83,29.63,1017.08,2041.05,3417.00,3299.13,3587.04,349.76,320.11,5.42,0000 0000 0000 0000 000000
2013-10-20 00:36:18,0.03,0.15,0.00,26.56,28.47,30.98,5.99,29.54,1017.10,2041.03,3416.99,3299.05,3587.01,350.46,319.88,5.43,0000 0000 0000 0000 000000
2013-10-20 00:37:18,0.00,0.15,0.00,26.53,28.47,31.01,6.01,29.75,1017.10,2041.03,3416.98,3299.01,3587.00,350.91,321.34,5.44,0000 0000 0000 0000 000000
2013-10-20 00:38:19,0.00,0.15,0.00,26.49,28.47,31.07,5.79,29.67,1017.10,2041.06,3416.99,3299.00,3587.00,349.39,319.74,5.44,0000 0000 0000 0000 000000
2013-10-20 00:39:19,0.02,0.15,0.00,26.50,28.47,31.14,5.92,29.71,1017.10,2041.08,3416.95,3299.00,3587.00,349.99,320.33,5.45,0000 0000 0000 0000 000000
2013-10-20 00:40:19,0.02,0.15,0.00,26.43,28.47,31.15,5.84,29.63,1017.10,2041.07,3416.83,3299.00,3587.00,350.45,320.99,5.45,0000 0000 0000 0000 000000
2013-10-20 00:41:19,0.01,0.15,0.00,26.41,28.47,31.13,6.04,30.00,1017.10,2041.06,3416.62,3299.00,3586.98,350.22,320.80,5.46,0000 0000 0000 0000 000000
2013-10-20 00:42:20,0.03,0.15,0.00,26.49,28.47,31.08,6.05,29.92,1017.10,2041.05,3416.32,3299.00,3586.97,350.63,320.92,5.46,0000 0000 0000 0000 000000
2013-10-20 00:43:20,0.02,0.15,0.00,26.52,28.47,31.09,5.98,30.04,1017.10,2041.05,3416.13,3299.00,3586.93,349.40,319.86,5.47,0000 0000 0000 0000 000000
2013-10-20 00:44:20,0.02,0.15,0.00,26.54,28.47,31.14,5.83,29.83,1017.10,2041.10,3416.05,3298.99,3586.95,349.62,319.94,5.48,0000 0000 0000 0000 000000
2013-10-20 00:45:21,0.04,0.15,0.00,26.58,28.47,31.10,6.03,29.92,1017.07,2041.11,3416.02,3298.99,3586.94,350.41,320.62,5.48,0000 0000 0000 0000 000000
2013-10-20 00:46:21,0.01,0.15,0.00,26.63,28.47,31.03,5.91,29.71,1017.02,2041.05,3416.00,3298.95,3586.70,350.69,320.93,5.49,0000 0000 0000 0000 000000
2013-10-20 00:47:21,0.00,0.15,0.00,26.70,28.47,30.99,5.94,29.88,1017.01,2041.03,3416.00,3298.91,3586.61,350.05,319.65,5.49,0000 0000 0000 0000 000000
2013-10-20 00:48:22,0.01,0.15,0.00,26.69,28.47,30.96,5.82,29.88,1017.06,2041.03,3415.99,3298.79,3586.36,349.68,319.82,5.50,0000 0000 0000 0000 000000
2013-10-20 00:49:22,0.04,0.15,0.00,26.70,28.47,30.98,5.95,29.75,1017.01,2041.04,3415.98,3298.85,3586.25,350.43,320.49,5.51,0000 0000 0000 0000 000000
2013-10-20 00:50:22,0.02,0.15,0.00,26.71,28.47,30.97,5.79,30.00,1016.99,2041.06,3415.96,3298.85,3586.20,349.62,320.02,5.51,0000 0000 0000 0000 000000
2013-10-20 00:51:22,0.01,0.15,0.00,26.72,28.47,30.93,5.87,29.88,1017.01,2041.07,3415.97,3298.81,3586.11,350.28,320.10,5.52,0000 0000 0000 0000 000000
2013-10-20 00:52:23,0.04,0.15,0.00,26.71,28.47,30.97,5.91,29.96,1017.02,2041.04,3415.81,3298.45,3586.09,350.33,320.48,5.52,0000 0000 0000 0000 000000
2013-10-20 00:53:23,0.07,0.15,0.00,26.72,28.47,30.94,5.73,29.92,1017.03,2041.02,3415.48,3298.21,3586.03,350.34,320.87,5.53,0000 0000 0000 0000 000000
2013-10-20 00:54:23,0.07,0.15,0.00,26.68,28.47,30.95,5.99,29.79,1017.08,2041.01,3415.19,3298.09,3586.01,350.70,320.80,5.53,0000 0000 0000 0000 000000
2013-10-20 00:55:24,0.05,0.15,0.00,26.67,28.47,30.94,5.84,29.75,1017.08,2041.02,3415.08,3298.04,3586.00,349.70,320.07,5.54,0000 0000 0000 0000 000000
2013-10-20 00:56:24,0.03,0.15,0.00,26.70,28.47,30.94,5.79,29.79,1017.09,2041.04,3415.03,3298.01,3586.00,350.12,320.23,5.55,0000 0000 0000 0000 000000
2013-10-20 00:57:24,0.01,0.15,0.00,26.70,28.47,30.92,5.98,29.96,1017.10,2041.02,3415.01,3298.01,3586.00,349.51,319.67,5.55,0000 0000 0000 0000 000000
2013-10-20 00:58:24,0.00,0.15,0.00,26.71,28.47,30.93,6.12,29.79,1017.10,2041.01,3415.00,3298.00,3585.98,350.67,320.73,5.56,0000 0000 0000 0000 000000
2013-10-20 00:59:25,0.00,0.15,0.00,26.75,28.47,30.93,5.94,29.83,1017.10,2041.01,3415.00,3298.00,3585.97,349.97,320.35,5.56,0000 0000 0000 0000 000000
2013-10-20 01:00:25,0.00,0.15,0.00,26.73,28.47,30.94,5.91,29.83,1017.10,2041.01,3414.97,3298.00,3585.98,350.14,320.51,5.57,0000 0000 0000 0000 000000
2013-10-20 01:01:25,0.01,0.15,0.00,26.67,28.47,30.97,5.86,29.75,1017.10,2041.04,3414.93,3298.00,3585.97,350.70,320.96,5.58,0000 0000 0000 0000 000000
2013-10-20 01:02:26,0.01,0.15,0.00,26.66,28.48,30.95,5.93,29.71,1017.10,2041.03,3414.77,3298.00,3585.77,350.22,320.41,5.58,0000 0000 0000 0000 000000
2013-10-20 01:03:26,0.04,0.15,0.00,26.67,28.48,30.96,5.83,29.50,1017.10,2041.04,3414.61,3297.99,3585.57,350.47,320.68,5.59,0000 0000 0000 0000 000000
2013-10-20 01:04:26,0.05,0.15,0.00,26.68,28.48,30.94,5.76,29.54,1017.11,2041.02,3414.32,3297.98,3585.36,349.93,319.77,5.59,0000 0000 0000 0000 000000
2013-10-20 01:05:26,0.04,0.15,0.00,26.66,28.48,30.98,5.91,29.79,1017.13,2041.02,3414.17,3297.96,3585.17,350.00,320.35,5.60,0000 0000 0000 0000 000000
2013-10-20 01:06:27,0.03,0.15,0.00,26.66,28.48,30.97,5.69,29.54,1017.12,2041.01,3414.07,3297.86,3585.08,349.42,319.65,5.61,0000 0000 0000 0000 000000
2013-10-20 01:07:27,0.03,0.15,0.00,26.66,28.48,30.95,5.82,29.71,1017.14,2041.00,3414.02,3297.61,3585.03,350.12,320.68,5.61,0000 0000 0000 0000 000000
2013-10-20 01:08:27,0.07,0.15,0.00,26.64,28.48,30.96,5.86,29.58,1017.13,2041.00,3414.00,3297.27,3585.01,350.54,320.69,5.62,0000 0000 0000 0000 000000
2013-10-20 01:09:28,0.07,0.16,0.00,26.59,28.49,31.00,5.93,29.25,1017.14,2041.00,3414.00,3297.16,3585.00,350.48,320.69,5.62,0000 0000 0000 0000 000000
2013-10-20 01:10:28,0.02,0.16,0.00,26.63,28.49,31.02,5.75,29.50,1017.16,2041.00,3414.00,3297.10,3585.00,349.49,320.00,5.63,0000 0000 0000 0000 000000
2013-10-20 01:11:28,0.01,0.16,0.00,26.70,28.50,31.00,6.07,29.71,1017.24,2041.00,3414.00,3297.06,3585.00,350.23,320.02,5.63,0000 0000 0000 0000 000000
2013-10-20 01:12:28,0.01,0.16,0.00,26.75,28.49,30.96,5.91,29.71,1017.25,2041.00,3414.00,3297.07,3585.00,349.88,320.18,5.64,0000 0000 0000 0000 000000
2013-10-20 01:13:28,0.01,0.16,0.00,26.77,28.49,30.97,5.98,29.54,1017.27,2041.01,3413.93,3297.03,3585.00,350.78,320.74,5.65,0000 0000 0000 0000 000000
2013-10-20 01:14:29,0.02,0.16,0.00,26.78,28.50,30.96,5.88,29.63,1017.33,2041.01,3413.70,3297.01,3584.99,350.27,320.14,5.65,0000 0000 0000 0000 000000
2013-10-20 01:15:29,0.04,0.16,0.00,26.74,28.49,30.97,5.86,29.13,1017.39,2041.03,3413.52,3297.01,3584.97,350.43,320.92,5.66,0000 0000 0000 0000 000000
2013-10-20 01:16:29,0.04,0.16,0.00,26.72,28.50,30.95,5.93,29.63,1017.43,2041.04,3413.41,3297.00,3584.95,349.21,319.69,5.66,0000 0000 0000 0000 000000
2013-10-20 01:17:30,0.02,0.16,0.00,26.63,28.50,30.97,5.77,29.71,1017.46,2041.02,3413.21,3297.00,3584.85,349.78,320.10,5.67,0000 0000 0000 0000 000000
2013-10-20 01:18:30,0.02,0.16,0.00,26.62,28.50,30.99,5.96,29.63,1017.50,2041.01,3413.11,3297.00,3584.73,350.56,321.04,5.68,0000 0000 0000 0000 000000
2013-10-20 01:19:30,0.02,0.16,0.00,26.63,28.50,30.98,5.92,29.71,1017.50,2041.01,3413.06,3297.00,3584.53,350.10,320.41,5.68,0000 0000 0000 0000 000000
2013-10-20 01:20:30,0.01,0.16,0.00,26.63,28.50,30.99,5.98,29.63,1017.55,2041.00,3413.03,3297.00,3584.37,350.19,320.51,5.69,0000 0000 0000 0000 000000
2013-10-20 01:21:30,0.02,0.16,0.00,26.60,28.50,30.99,5.77,29.38,1017.58,2041.00,3413.01,3297.00,3584.20,349.59,320.13,5.69,0000 0000 0000 0000 000000
2013-10-20 01:22:31,0.02,0.16,0.00,26.57,28.50,30.99,5.91,29.71,1017.59,2041.00,3413.00,3296.97,3584.09,349.59,320.40,5.70,0000 0000 0000 0000 000000
2013-10-20 01:23:31,0.02,0.16,0.00,26.58,28.50,31.01,6.01,29.75,1017.59,2041.00,3413.00,3296.96,3584.05,349.08,319.75,5.70,0000 0000 0000 0000 000000
2013-10-20 01:24:31,0.01,0.16,0.00,26.55,28.50,31.07,5.86,29.83,1017.59,2041.00,3413.00,3296.97,3584.03,350.22,320.63,5.71,0000 0000 0000 0000 000000
2013-10-20 01:25:32,0.00,0.16,0.00,26.55,28.50,31.04,5.97,29.67,1017.59,2041.00,3412.99,3296.89,3584.01,350.35,320.76,5.72,0000 0000 0000 0000 000000
2013-10-20 01:26:32,0.01,0.16,0.00,26.61,28.50,31.04,5.85,29.58,1017.59,2041.02,3412.94,3296.81,3584.00,350.58,320.91,5.72,0000 0000 0000 0000 000000
2013-10-20 01:27:32,0.04,0.16,0.00,26.65,28.50,31.03,5.76,29.67,1017.59,2041.01,3412.82,3296.52,3584.00,349.59,319.94,5.73,0000 0000 0000 0000 000000
2013-10-20 01:28:33,0.07,0.16,0.00,26.69,28.50,31.02,6.03,29.79,1017.59,2041.00,3412.58,3296.31,3584.00,350.88,321.18,5.73,0000 0000 0000 0000 000000
2013-10-20 01:29:33,0.06,0.16,0.00,26.69,28.50,31.02,5.83,29.58,1017.59,2041.00,3412.29,3296.18,3583.99,350.91,321.30,5.74,0000 0000 0000 0000 000000
2013-10-20 01:30:33,0.06,0.16,0.00,26.65,28.50,30.98,5.99,29.71,1017.59,2041.00,3412.13,3296.09,3583.99,350.26,320.43,5.75,0000 0000 0000 0000 000000
2013-10-20 01:31:34,0.04,0.16,0.00,26.63,28.50,31.02,5.89,29.63,1017.59,2041.00,3412.06,3296.05,3583.99,350.00,320.62,5.75,0000 0000 0000 0000 000000
2013-10-20 01:32:34,0.01,0.16,0.00,26.56,28.50,31.03,5.83,29.58,1017.59,2041.00,3412.02,3296.02,3583.95,349.90,320.60,5.76,0000 0000 0000 0000 000000
2013-10-20 01:33:34,0.00,0.16,0.00,26.56,28.50,31.01,5.99,29.58,1017.60,2041.00,3412.00,3296.00,3583.96,350.07,320.49,5.76,0000 0000 0000 0000 000000
2013-10-20 01:34:34,0.00,0.16,0.00,26.56,28.50,31.02,5.92,29.67,1017.61,2041.00,3412.00,3296.00,3583.81,350.21,320.63,5.77,0000 0000 0000 0000 000000
2013-10-20 01:35:35,0.01,0.16,0.00,26.57,28.50,31.08,5.88,29.33,1017.60,2041.00,3412.00,3296.00,3583.62,350.06,320.81,5.78,0000 0000 0000 0000 000000
2013-10-20 01:36:35,0.02,0.16,0.00,26.58,28.50,31.09,5.79,29.50,1017.60,2041.00,3411.99,3296.00,3583.34,348.98,319.19,5.78,0000 0000 0000 0000 000000
2013-10-20 01:37:35,0.03,0.16,0.00,26.59,28.50,31.05,5.84,29.50,1017.61,2041.00,3411.97,3296.00,3583.17,350.63,321.22,5.79,0000 0000 0000 0000 000000
2013-10-20 01:38:36,0.02,0.16,0.00,26.61,28.51,31.08,5.96,29.71,1017.62,2041.00,3411.93,3295.99,3583.07,350.48,320.80,5.79,0000 0000 0000 0000 000000
2013-10-20 01:39:36,0.01,0.16,0.00,26.61,28.51,31.05,5.78,29.50,1017.63,2041.00,3411.88,3295.99,3583.04,349.46,319.90,5.80,0000 0000 0000 0000 000000
2013-10-20 01:40:36,0.01,0.16,0.00,26.59,28.52,31.05,5.68,29.50,1017.64,2041.00,3411.65,3295.99,3583.02,349.97,320.32,5.80,0000 0000 0000 0000 000000
2013-10-20 01:41:36,0.03,0.16,0.00,26.62,28.52,31.06,5.69,29.54,1017.65,2041.00,3411.41,3295.98,3583.00,349.26,319.17,5.81,0000 0000 0000 0000 000000
2013-10-20 01:42:37,0.03,0.16,0.00,26.62,28.52,31.06,6.08,29.79,1017.65,2041.00,3411.20,3295.94,3583.01,350.26,320.62,5.82,0000 0000 0000 0000 000000
2013-10-20 01:43:37,0.02,0.16,0.00,26.64,28.52,31.10,5.72,29.63,1017.72,2041.00,3411.10,3295.86,3583.00,348.91,319.38,5.82,0000 0000 0000 0000 000000
2013-10-20 01:44:37,0.03,0.16,0.00,26.64,28.52,31.05,5.88,29.58,1017.66,2041.00,3411.04,3295.78,3583.00,349.45,320.36,5.83,0000 0000 0000 0000 000000
2013-10-20 01:45:37,0.02,0.16,0.00,26.67,28.52,31.04,5.77,29.42,1017.66,2041.00,3411.01,3295.77,3583.00,349.27,319.66,5.83,0000 0000 0000 0000 000000
2013-10-20 01:46:38,0.01,0.16,0.00,26.67,28.52,31.06,5.86,29.58,1017.72,2041.00,3411.00,3295.64,3583.00,349.87,320.18,5.84,0000 0000 0000 0000 000000
2013-10-20 01:47:38,0.03,0.16,0.00,26.64,28.52,31.06,6.04,29.42,1017.78,2041.00,3411.00,3295.49,3583.00,350.74,321.04,5.85,0000 0000 0000 0000 000000
2013-10-20 01:48:38,0.04,0.16,0.00,26.57,28.52,31.06,5.97,29.63,1017.72,2041.00,3411.00,3295.30,3583.00,350.11,320.47,5.85,0000 0000 0000 0000 000000
2013-10-20 01:49:39,0.03,0.16,0.00,26.55,28.52,31.10,5.96,29.67,1017.72,2041.00,3411.00,3295.13,3582.98,350.20,320.70,5.86,0000 0000 0000 0000 000000
2013-10-20 01:50:39,0.02,0.16,0.00,26.54,28.52,31.14,5.90,29.54,1017.72,2041.00,3410.99,3295.06,3582.98,349.87,321.12,5.86,0000 0000 0000 0000 000000
2013-10-20 01:51:39,0.01,0.16,0.00,26.55,28.52,31.13,5.91,29.54,1017.67,2041.00,3410.98,3295.03,3582.94,350.63,321.04,5.87,0000 0000 0000 0000 000000
2013-10-20 01:52:39,0.00,0.16,0.00,26.63,28.52,31.13,5.93,29.29,1017.70,2041.00,3410.98,3295.03,3582.96,350.51,320.85,5.87,0000 0000 0000 0000 000000
2013-10-20 01:53:40,0.00,0.16,0.00,26.61,28.52,31.09,5.93,29.67,1017.65,2041.00,3410.95,3295.03,3582.98,350.43,320.62,5.88,0000 0000 0000 0000 000000
2013-10-20 01:54:40,0.00,0.16,0.00,26.60,28.52,31.14,6.01,29.67,1017.63,2041.00,3410.85,3295.02,3582.98,350.50,320.85,5.89,0000 0000 0000 0000 000000
2013-10-20 01:55:40,0.02,0.16,0.00,26.61,28.52,31.08,5.81,29.54,1017.64,2041.00,3410.55,3295.01,3582.96,350.05,320.76,5.89,0000 0000 0000 0000 000000
2013-10-20 01:56:40,0.04,0.16,0.00,26.63,28.52,31.15,5.94,29.75,1017.62,2041.00,3410.28,3295.00,3582.91,349.84,320.21,5.90,0000 0000 0000 0000 000000
2013-10-20 01:57:41,0.04,0.16,0.00,26.56,28.52,31.16,6.05,29.75,1017.63,2041.00,3410.13,3295.00,3582.68,350.68,320.94,5.90,0000 0000 0000 0000 000000
2013-10-20 01:58:41,0.04,0.16,0.00,26.48,28.52,31.12,5.88,29.71,1017.65,2041.00,3410.06,3294.99,3582.49,350.07,320.35,5.91,0000 0000 0000 0000 000000
2013-10-20 01:59:41,0.03,0.16,0.00,26.49,28.53,31.12,6.00,29.71,1017.63,2041.00,3410.02,3294.99,3582.28,350.26,320.73,5.92,0000 0000 0000 0000 000000
2013-10-20 02:00:41,0.03,0.16,0.00,26.54,28.53,31.07,5.97,29.71,1017.63,2041.00,3410.00,3294.98,3582.14,350.84,321.23,5.92,0000 0000 0000 0000 000000
2013-10-20 02:01:42,0.02,0.16,0.00,26.52,28.53,31.11,5.93,29.58,1017.63,2041.00,3410.00,3294.99,3582.10,350.45,320.89,5.93,0000 0000 0000 0000 000000
2013-10-20 02:02:42,0.00,0.16,0.00,26.52,28.54,31.09,5.88,29.54,1017.60,2041.00,3410.00,3294.98,3582.13,350.17,320.63,5.93,0000 0000 0000 0000 000000
2013-10-20 02:03:42,0.00,0.16,0.00,26.52,28.54,31.12,6.03,29.75,1017.59,2041.00,3410.00,3294.88,3582.07,349.54,320.05,5.94,0000 0000 0000 0000 000000
2013-10-20 02:04:42,0.03,0.16,0.00,26.48,28.54,31.22,5.93,29.67,1017.59,2041.00,3409.99,3294.70,3582.03,349.52,320.07,5.95,0000 0000 0000 0000 000000
2013-10-20 02:05:43,0.04,0.16,0.00,26.53,28.55,31.22,5.81,29.67,1017.59,2041.00,3409.98,3294.58,3582.01,349.28,319.79,5.95,0000 0000 0000 0000 000000
2013-10-20 02:06:43,0.02,0.16,0.00,26.57,28.55,31.25,5.85,29.71,1017.60,2041.00,3409.97,3294.52,3582.00,349.64,320.10,5.96,0000 0000 0000 0000 000000
2013-10-20 02:07:43,0.00,0.16,0.00,26.53,28.55,31.25,5.85,29.83,1017.61,2041.00,3409.91,3294.40,3582.00,350.38,320.90,5.96,0000 0000 0000 0000 000000
2013-10-20 02:08:43,0.04,0.16,0.00,26.50,28.55,31.20,5.88,29.63,1017.60,2041.00,3409.63,3294.25,3582.00,349.43,320.16,5.97,0000 0000 0000 0000 000000
2013-10-20 02:09:43,0.06,0.16,0.00,26.49,28.55,31.13,5.88,29.71,1017.62,2041.00,3409.46,3294.16,3582.00,350.34,320.31,5.97,0000 0000 0000 0000 000000
2013-10-20 02:10:43,0.04,0.16,0.00,26.49,28.55,31.12,6.04,29.79,1017.61,2041.00,3409.28,3294.10,3582.00,350.90,321.51,5.98,0000 0000 0000 0000 000000
2013-10-20 02:11:43,0.02,0.16,0.00,26.48,28.55,31.19,5.88,29.79,1017.60,2041.00,3409.14,3294.07,3582.00,350.24,320.63,5.99,0000 0000 0000 0000 000000
2013-10-20 02:12:44,0.03,0.17,0.00,26.50,28.55,31.17,5.87,29.79,1017.61,2041.00,3409.05,3294.03,3581.98,349.54,320.49,5.99,0000 0000 0000 0000 000000
2013-10-20 02:13:44,0.02,0.17,0.00,26.49,28.55,31.14,5.93,29.46,1017.59,2041.00,3409.02,3294.01,3581.90,350.58,321.18,6.00,0000 0000 0000 0000 000000
2013-10-20 02:14:44,0.02,0.17,0.00,26.47,28.55,31.23,5.94,29.88,1017.60,2041.00,3409.00,3294.00,3581.82,350.24,320.69,6.00,0000 0000 0000 0000 000000
2013-10-20 02:15:44,0.00,0.17,0.00,26.47,28.55,31.26,5.75,29.75,1017.60,2041.00,3409.00,3294.00,3581.71,349.40,320.07,6.01,0000 0000 0000 0000 000000
2013-10-20 02:16:45,0.02,0.17,0.00,26.46,28.55,31.27,6.08,29.71,1017.59,2041.00,3409.00,3294.00,3581.36,350.51,320.80,6.02,0000 0000 0000 0000 000000
2013-10-20 02:17:45,0.04,0.17,0.00,26.49,28.55,31.27,5.75,29.67,1017.60,2041.00,3409.00,3294.00,3581.18,349.67,320.21,6.02,0000 0000 0000 0000 000000
2013-10-20 02:18:45,0.02,0.17,0.00,26.49,28.55,31.26,5.92,29.38,1017.59,2041.00,3408.96,3293.98,3581.08,350.80,321.23,6.03,0000 0000 0000 0000 000000
2013-10-20 02:19:45,0.01,0.17,0.00,26.50,28.55,31.26,5.83,29.75,1017.60,2041.00,3408.92,3293.99,3581.08,350.16,320.57,6.03,0000 0000 0000 0000 000000
2013-10-20 02:20:45,0.00,0.17,0.00,26.55,28.55,31.25,6.05,29.88,1017.60,2041.00,3408.78,3293.97,3581.07,350.07,320.46,6.04,0000 0000 0000 0000 000000
2013-10-20 02:21:46,0.02,0.17,0.00,26.55,28.55,31.24,5.97,29.75,1017.59,2041.00,3408.59,3293.98,3581.03,350.56,320.48,6.04,0000 0000 0000 0000 000000
2013-10-20 02:22:46,0.02,0.17,0.00,26.58,28.55,31.24,5.83,29.88,1017.64,2041.00,3408.33,3293.97,3581.02,349.32,320.18,6.05,0000 0000 0000 0000 000000
2013-10-20 02:23:46,0.04,0.17,0.00,26.62,28.55,31.24,5.99,29.88,1017.63,2041.00,3408.15,3293.94,3581.00,350.15,320.52,6.06,0000 0000 0000 0000 000000
2013-10-20 02:24:47,0.02,0.17,0.00,26.66,28.55,31.15,5.91,29.42,1017.61,2041.00,3408.06,3293.87,3581.00,349.24,319.63,6.06,0000 0000 0000 0000 000000
2013-10-20 02:25:47,0.01,0.17,0.00,26.68,28.55,31.07,5.86,29.46,1017.62,2041.00,3408.03,3293.78,3581.00,350.06,320.36,6.07,0000 0000 0000 0000 000000
2013-10-20 02:26:47,0.03,0.17,0.00,26.65,28.55,31.13,5.88,29.67,1017.63,2041.00,3408.01,3293.60,3581.00,350.17,320.53,6.07,0000 0000 0000 0000 000000
2013-10-20 02:27:47,0.03,0.17,0.00,26.62,28.55,31.18,5.78,29.67,1017.61,2041.00,3408.00,3293.50,3581.00,349.00,319.45,6.08,0000 0000 0000 0000 000000
2013-10-20 02:28:48,0.02,0.17,0.00,26.64,28.54,31.14,5.97,29.79,1017.70,2041.00,3408.00,3293.39,3580.99,350.72,321.02,6.09,0000 0000 0000 0000 000000
2013-10-20 02:29:48,0.01,0.17,0.00,26.67,28.54,31.07,5.89,29.63,1017.72,2041.00,3408.00,3293.32,3580.97,349.69,319.57,6.09,0000 0000 0000 0000 000000
2013-10-20 02:30:48,0.01,0.17,0.00,26.71,28.54,31.09,5.96,29.71,1017.88,2041.00,3408.00,3293.18,3580.98,350.36,320.71,6.10,0000 0000 0000 0000 000000
2013-10-20 02:31:49,0.03,0.17,0.00,26.76,28.53,31.03,5.67,29.54,1017.98,2041.00,3408.00,3293.08,3580.98,349.12,319.53,6.10,0000 0000 0000 0000 000000
2013-10-20 02:32:49,0.02,0.17,0.00,26.80,28.53,31.01,6.03,29.71,1018.03,2041.00,3407.87,3293.03,3580.88,351.08,321.58,6.11,0000 0000 0000 0000 000000
2013-10-20 02:33:49,0.05,0.17,0.00,26.83,28.53,31.03,5.82,29.54,1018.08,2041.00,3407.47,3293.01,3580.64,349.44,319.78,6.12,0000 0000 0000 0000 000000
2013-10-20 02:34:49,0.08,0.17,0.00,26.85,28.52,30.99,5.99,29.67,1018.08,2041.00,3407.20,3293.00,3580.49,349.57,319.87,6.12,0000 0000 0000 0000 000000
2013-10-20 02:35:50,0.05,0.17,0.00,26.85,28.52,30.98,5.98,29.42,1018.08,2041.00,3407.08,3293.00,3580.27,349.89,320.50,6.13,0000 0000 0000 0000 000000
2013-10-20 02:36:50,0.04,0.17,0.00,26.86,28.52,30.99,5.92,29.50,1018.08,2041.00,3407.03,3293.00,3580.12,349.99,320.44,6.13,0000 0000 0000 0000 000000